Year,Month,Day,Hour,Minute,Value (Times are PST for temperature in C)
2013,08,31,00,00,13.90
2013,08,31,00,01,13.90
2013,08,31,00,02,13.90
2013,08,31,00,03,13.90
2013,08,31,00,04,14.00
2013,08,31,00,05,14.00
2013,08,31,00,06,14.00
2013,08,31,00,07,14.00
2013,08,31,00,08,14.00
2013,08,31,00,09,14.00
2013,08,31,00,10,13.90
2013,08,31,00,11,13.90
2013,08,31,00,12,13.90
2013,08,31,00,13,13.90
2013,08,31,00,14,13.90
2013,08,31,00,15,13.90
2013,08,31,00,16,13.90
2013,08,31,00,17,13.90
2013,08,31,00,18,13.80
2013,08,31,00,19,13.80
2013,08,31,00,20,13.80
2013,08,31,00,21,13.80
2013,08,31,00,22,13.80
2013,08,31,00,23,13.70
2013,08,31,00,24,13.70
2013,08,31,00,25,13.70
2013,08,31,00,26,13.70
2013,08,31,00,27,13.70
2013,08,31,00,28,13.70
2013,08,31,00,29,13.70
2013,08,31,00,30,13.70
2013,08,31,00,31,13.60
2013,08,31,00,32,13.60
2013,08,31,00,33,13.60
2013,08,31,00,34,13.60
2013,08,31,00,35,13.60
2013,08,31,00,36,13.60
2013,08,31,00,37,13.60
2013,08,31,00,38,13.60
2013,08,31,00,39,13.60
2013,08,31,00,40,13.60
2013,08,31,00,41,13.60
2013,08,31,00,42,13.60
2013,08,31,00,43,13.60
2013,08,31,00,44,13.60
2013,08,31,00,45,13.60
2013,08,31,00,46,13.60
2013,08,31,00,47,13.60
2013,08,31,00,48,13.60
2013,08,31,00,49,13.60
2013,08,31,00,50,13.60
2013,08,31,00,51,13.60
2013,08,31,00,52,13.60
2013,08,31,00,53,13.60
2013,08,31,00,54,13.60
2013,08,31,00,55,13.60
2013,08,31,00,56,13.60
2013,08,31,00,57,13.60
2013,08,31,00,58,13.60
2013,08,31,00,59,13.60
2013,08,31,01,00,13.50
2013,08,31,01,01,13.50
2013,08,31,01,02,13.50
2013,08,31,01,03,13.50
2013,08,31,01,04,13.50
2013,08,31,01,05,13.40
2013,08,31,01,06,13.50
2013,08,31,01,07,13.50
2013,08,31,01,08,13.50
2013,08,31,01,09,13.40
2013,08,31,01,10,13.40
2013,08,31,01,11,13.40
2013,08,31,01,12,13.40
2013,08,31,01,13,13.40
2013,08,31,01,14,13.40
2013,08,31,01,15,13.40
2013,08,31,01,16,13.30
2013,08,31,01,17,13.30
2013,08,31,01,18,13.30
2013,08,31,01,19,13.30
2013,08,31,01,20,13.30
2013,08,31,01,21,13.30
2013,08,31,01,22,13.30
2013,08,31,01,23,13.30
2013,08,31,01,24,13.30
2013,08,31,01,25,13.30
2013,08,31,01,26,13.30
2013,08,31,01,27,13.30
2013,08,31,01,28,13.30
2013,08,31,01,29,13.30
2013,08,31,01,30,13.30
2013,08,31,01,31,13.30
2013,08,31,01,32,13.20
2013,08,31,01,33,13.20
2013,08,31,01,34,13.20
2013,08,31,01,35,13.20
2013,08,31,01,36,13.20
2013,08,31,01,37,13.20
2013,08,31,01,38,13.20
2013,08,31,01,39,13.10
2013,08,31,01,40,13.10
2013,08,31,01,41,13.10
2013,08,31,01,42,13.10
2013,08,31,01,43,13.10
2013,08,31,01,44,13.10
2013,08,31,01,45,13.00
2013,08,31,01,46,13.10
2013,08,31,01,47,13.10
2013,08,31,01,48,13.10
2013,08,31,01,49,13.10
2013,08,31,01,50,13.10
2013,08,31,01,51,13.10
2013,08,31,01,52,13.00
2013,08,31,01,53,13.00
2013,08,31,01,54,13.00
2013,08,31,01,55,13.00
2013,08,31,01,56,13.00
2013,08,31,01,57,12.90
2013,08,31,01,58,12.90
2013,08,31,01,59,12.90
2013,08,31,02,00,12.90
2013,08,31,02,01,12.90
2013,08,31,02,02,12.90
2013,08,31,02,03,12.90
2013,08,31,02,04,12.90
2013,08,31,02,05,12.90
2013,08,31,02,06,12.90
2013,08,31,02,07,12.90
2013,08,31,02,08,12.90
2013,08,31,02,09,12.90
2013,08,31,02,10,12.90
2013,08,31,02,11,12.90
2013,08,31,02,12,12.90
2013,08,31,02,13,12.90
2013,08,31,02,14,12.80
2013,08,31,02,15,12.80
2013,08,31,02,16,12.80
2013,08,31,02,17,12.80
2013,08,31,02,18,12.80
2013,08,31,02,19,12.80
2013,08,31,02,20,12.90
2013,08,31,02,21,12.90
2013,08,31,02,22,12.80
2013,08,31,02,23,12.80
2013,08,31,02,24,12.80
2013,08,31,02,25,12.80
2013,08,31,02,26,12.80
2013,08,31,02,27,12.80
2013,08,31,02,28,12.80
2013,08,31,02,29,12.80
2013,08,31,02,30,12.80
2013,08,31,02,31,12.80
2013,08,31,02,32,12.80
2013,08,31,02,33,12.90
2013,08,31,02,34,12.90
2013,08,31,02,35,12.90
2013,08,31,02,36,12.90
2013,08,31,02,37,12.90
2013,08,31,02,38,12.90
2013,08,31,02,39,12.90
2013,08,31,02,40,12.90
2013,08,31,02,41,12.90
2013,08,31,02,42,12.90
2013,08,31,02,43,12.90
2013,08,31,02,44,12.90
2013,08,31,02,45,12.90
2013,08,31,02,46,12.90
2013,08,31,02,47,12.90
2013,08,31,02,48,12.90
2013,08,31,02,49,12.90
2013,08,31,02,50,12.90
2013,08,31,02,51,12.90
2013,08,31,02,52,12.90
2013,08,31,02,53,12.90
2013,08,31,02,54,12.90
2013,08,31,02,55,12.90
2013,08,31,02,56,12.90
2013,08,31,02,57,12.90
2013,08,31,02,58,12.90
2013,08,31,02,59,12.90
2013,08,31,03,00,12.90
2013,08,31,03,01,13.00
2013,08,31,03,02,13.00
2013,08,31,03,03,13.00
2013,08,31,03,04,13.00
2013,08,31,03,05,13.00
2013,08,31,03,06,13.10
2013,08,31,03,07,13.00
2013,08,31,03,08,13.10
2013,08,31,03,09,13.10
2013,08,31,03,10,13.10
2013,08,31,03,11,13.10
2013,08,31,03,12,13.10
2013,08,31,03,13,13.10
2013,08,31,03,14,13.00
2013,08,31,03,15,13.00
2013,08,31,03,16,13.00
2013,08,31,03,17,13.00
2013,08,31,03,18,12.90
2013,08,31,03,19,12.90
2013,08,31,03,20,12.90
2013,08,31,03,21,12.90
2013,08,31,03,22,12.90
2013,08,31,03,23,12.90
2013,08,31,03,24,12.90
2013,08,31,03,25,12.90
2013,08,31,03,26,12.90
2013,08,31,03,27,12.90
2013,08,31,03,28,12.90
2013,08,31,03,29,12.90
2013,08,31,03,30,12.90
2013,08,31,03,31,12.90
2013,08,31,03,32,12.80
2013,08,31,03,33,12.80
2013,08,31,03,34,12.80
2013,08,31,03,35,12.80
2013,08,31,03,36,12.80
2013,08,31,03,37,12.80
2013,08,31,03,38,12.80
2013,08,31,03,39,12.80
2013,08,31,03,40,12.80
2013,08,31,03,41,12.80
2013,08,31,03,42,12.80
2013,08,31,03,43,12.80
2013,08,31,03,44,12.80
2013,08,31,03,45,12.80
2013,08,31,03,46,12.80
2013,08,31,03,47,12.80
2013,08,31,03,48,12.80
2013,08,31,03,49,12.80
2013,08,31,03,50,12.80
2013,08,31,03,51,12.70
2013,08,31,03,52,12.70
2013,08,31,03,53,12.70
2013,08,31,03,54,12.70
2013,08,31,03,55,12.70
2013,08,31,03,56,12.70
2013,08,31,03,57,12.60
2013,08,31,03,58,12.60
2013,08,31,03,59,12.60
2013,08,31,04,00,12.60
2013,08,31,04,01,12.60
2013,08,31,04,02,12.60
2013,08,31,04,03,12.60
2013,08,31,04,04,12.60
2013,08,31,04,05,12.60
2013,08,31,04,06,12.50
2013,08,31,04,07,12.50
2013,08,31,04,08,12.50
2013,08,31,04,09,12.50
2013,08,31,04,10,12.40
2013,08,31,04,11,12.40
2013,08,31,04,12,12.40
2013,08,31,04,13,12.40
2013,08,31,04,14,12.40
2013,08,31,04,15,12.40
2013,08,31,04,16,12.40
2013,08,31,04,17,12.40
2013,08,31,04,18,12.30
2013,08,31,04,19,12.30
2013,08,31,04,20,12.30
2013,08,31,04,21,12.30
2013,08,31,04,22,12.30
2013,08,31,04,23,12.30
2013,08,31,04,24,12.30
2013,08,31,04,25,12.30
2013,08,31,04,26,12.30
2013,08,31,04,27,12.30
2013,08,31,04,28,12.30
2013,08,31,04,29,12.30
2013,08,31,04,30,12.30
2013,08,31,04,31,12.30
2013,08,31,04,32,12.30
2013,08,31,04,33,12.30
2013,08,31,04,34,12.30
2013,08,31,04,35,12.30
2013,08,31,04,36,12.30
2013,08,31,04,37,12.30
2013,08,31,04,38,12.40
2013,08,31,04,39,12.40
2013,08,31,04,40,12.40
2013,08,31,04,41,12.40
2013,08,31,04,42,12.40
2013,08,31,04,43,12.40
2013,08,31,04,44,12.40
2013,08,31,04,45,12.40
2013,08,31,04,46,12.40
2013,08,31,04,47,12.40
2013,08,31,04,48,12.40
2013,08,31,04,49,12.40
2013,08,31,04,50,12.40
2013,08,31,04,51,12.40
2013,08,31,04,52,12.50
2013,08,31,04,53,12.50
2013,08,31,04,54,12.50
2013,08,31,04,55,12.50
2013,08,31,04,56,12.50
2013,08,31,04,57,12.50
2013,08,31,04,58,12.50
2013,08,31,04,59,12.50
2013,08,31,05,00,12.50
2013,08,31,05,01,12.60
2013,08,31,05,02,12.50
2013,08,31,05,03,12.50
2013,08,31,05,04,12.50
2013,08,31,05,05,12.50
2013,08,31,05,06,12.50
2013,08,31,05,07,12.50
2013,08,31,05,08,12.50
2013,08,31,05,09,12.50
2013,08,31,05,10,12.50
2013,08,31,05,11,12.50
2013,08,31,05,12,12.50
2013,08,31,05,13,12.50
2013,08,31,05,14,12.50
2013,08,31,05,15,12.50
2013,08,31,05,16,12.50
2013,08,31,05,17,12.50
2013,08,31,05,18,12.50
2013,08,31,05,19,12.50
2013,08,31,05,20,12.50
2013,08,31,05,21,12.50
2013,08,31,05,22,12.50
2013,08,31,05,23,12.50
2013,08,31,05,24,12.50
2013,08,31,05,25,12.50
2013,08,31,05,26,12.60
2013,08,31,05,27,12.60
2013,08,31,05,28,12.60
2013,08,31,05,29,12.60
2013,08,31,05,30,12.60
2013,08,31,05,31,12.60
2013,08,31,05,32,12.60
2013,08,31,05,33,12.70
2013,08,31,05,34,12.70
2013,08,31,05,35,12.70
2013,08,31,05,36,12.70
2013,08,31,05,37,12.70
2013,08,31,05,38,12.60
2013,08,31,05,39,12.60
2013,08,31,05,40,12.60
2013,08,31,05,41,12.60
2013,08,31,05,42,12.60
2013,08,31,05,43,12.60
2013,08,31,05,44,12.60
2013,08,31,05,45,12.60
2013,08,31,05,46,12.60
2013,08,31,05,47,12.60
2013,08,31,05,48,12.60
2013,08,31,05,49,12.60
2013,08,31,05,50,12.50
2013,08,31,05,51,12.50
2013,08,31,05,52,12.50
2013,08,31,05,53,12.50
2013,08,31,05,54,12.40
2013,08,31,05,55,12.40
2013,08,31,05,56,12.40
2013,08,31,05,57,12.40
2013,08,31,05,58,12.40
2013,08,31,05,59,12.40
2013,08,31,06,00,12.30
2013,08,31,06,01,12.30
2013,08,31,06,02,12.30
2013,08,31,06,03,12.30
2013,08,31,06,04,12.30
2013,08,31,06,05,12.30
2013,08,31,06,06,12.30
2013,08,31,06,07,12.30
2013,08,31,06,08,12.30
2013,08,31,06,09,12.30
2013,08,31,06,10,12.30
2013,08,31,06,11,12.30
2013,08,31,06,12,12.30
2013,08,31,06,13,12.30
2013,08,31,06,14,12.30
2013,08,31,06,15,12.30
2013,08,31,06,16,12.30
2013,08,31,06,17,12.30
2013,08,31,06,18,12.30
2013,08,31,06,19,12.40
2013,08,31,06,20,12.40
2013,08,31,06,21,12.40
2013,08,31,06,22,12.40
2013,08,31,06,23,12.40
2013,08,31,06,24,12.40
2013,08,31,06,25,12.40
2013,08,31,06,26,12.40
2013,08,31,06,27,12.40
2013,08,31,06,28,12.40
2013,08,31,06,29,12.40
2013,08,31,06,30,12.30
2013,08,31,06,31,12.40
2013,08,31,06,32,12.40
2013,08,31,06,33,12.40
2013,08,31,06,34,12.30
2013,08,31,06,35,12.30
2013,08,31,06,36,12.30
2013,08,31,06,37,12.30
2013,08,31,06,38,12.30
2013,08,31,06,39,12.30
2013,08,31,06,40,12.30
2013,08,31,06,41,12.30
2013,08,31,06,42,12.30
2013,08,31,06,43,12.30
2013,08,31,06,44,12.30
2013,08,31,06,45,12.30
2013,08,31,06,46,12.30
2013,08,31,06,47,12.30
2013,08,31,06,48,12.20
2013,08,31,06,49,12.20
2013,08,31,06,50,12.20
2013,08,31,06,51,12.20
2013,08,31,06,52,12.20
2013,08,31,06,53,12.20
2013,08,31,06,54,12.20
2013,08,31,06,55,12.20
2013,08,31,06,56,12.20
2013,08,31,06,57,12.20
2013,08,31,06,58,12.20
2013,08,31,06,59,12.20
2013,08,31,07,00,12.20
2013,08,31,07,01,12.20
2013,08,31,07,02,12.20
2013,08,31,07,03,12.20
2013,08,31,07,04,12.20
2013,08,31,07,05,12.20
2013,08,31,07,06,12.20
2013,08,31,07,07,12.20
2013,08,31,07,08,12.20
2013,08,31,07,09,12.20
2013,08,31,07,10,12.20
2013,08,31,07,11,12.20
2013,08,31,07,12,12.20
2013,08,31,07,13,12.20
2013,08,31,07,14,12.30
2013,08,31,07,15,12.30
2013,08,31,07,16,12.30
2013,08,31,07,17,12.30
2013,08,31,07,18,12.30
2013,08,31,07,19,12.40
2013,08,31,07,20,12.50
2013,08,31,07,21,12.60
2013,08,31,07,22,12.60
2013,08,31,07,23,12.60
2013,08,31,07,24,12.60
2013,08,31,07,25,12.60
2013,08,31,07,26,12.70
2013,08,31,07,27,12.60
2013,08,31,07,28,12.70
2013,08,31,07,29,12.70
2013,08,31,07,30,12.70
2013,08,31,07,31,12.70
2013,08,31,07,32,12.70
2013,08,31,07,33,12.70
2013,08,31,07,34,12.70
2013,08,31,07,35,12.70
2013,08,31,07,36,12.70
2013,08,31,07,37,12.70
2013,08,31,07,38,12.70
2013,08,31,07,39,12.80
2013,08,31,07,40,12.80
2013,08,31,07,41,12.80
2013,08,31,07,42,12.80
2013,08,31,07,43,12.80
2013,08,31,07,44,12.80
2013,08,31,07,45,12.80
2013,08,31,07,46,12.80
2013,08,31,07,47,12.90
2013,08,31,07,48,12.90
2013,08,31,07,49,12.90
2013,08,31,07,50,12.90
2013,08,31,07,51,12.90
2013,08,31,07,52,12.90
2013,08,31,07,53,12.90
2013,08,31,07,54,12.90
2013,08,31,07,55,12.90
2013,08,31,07,56,12.90
2013,08,31,07,57,13.00
2013,08,31,07,58,13.00
2013,08,31,07,59,13.00
2013,08,31,08,00,13.00
2013,08,31,08,01,13.10
2013,08,31,08,02,13.10
2013,08,31,08,03,13.10
2013,08,31,08,04,13.10
2013,08,31,08,05,13.10
2013,08,31,08,06,13.10
2013,08,31,08,07,13.10
2013,08,31,08,08,13.20
2013,08,31,08,09,13.20
2013,08,31,08,10,13.20
2013,08,31,08,11,13.20
2013,08,31,08,12,13.20
2013,08,31,08,13,13.20
2013,08,31,08,14,13.20
2013,08,31,08,15,13.30
2013,08,31,08,16,13.30
2013,08,31,08,17,13.30
2013,08,31,08,18,13.40
2013,08,31,08,19,13.40
2013,08,31,08,20,13.40
2013,08,31,08,21,13.40
2013,08,31,08,22,13.50
2013,08,31,08,23,13.50
2013,08,31,08,24,13.60
2013,08,31,08,25,13.60
2013,08,31,08,26,13.60
2013,08,31,08,27,13.60
2013,08,31,08,28,13.60
2013,08,31,08,29,13.60
2013,08,31,08,30,13.70
2013,08,31,08,31,13.70
2013,08,31,08,32,13.70
2013,08,31,08,33,13.80
2013,08,31,08,34,13.80
2013,08,31,08,35,13.80
2013,08,31,08,36,13.80
2013,08,31,08,37,13.80
2013,08,31,08,38,13.80
2013,08,31,08,39,13.90
2013,08,31,08,40,13.90
2013,08,31,08,41,13.90
2013,08,31,08,42,13.90
2013,08,31,08,43,13.90
2013,08,31,08,44,14.00
2013,08,31,08,45,14.00
2013,08,31,08,46,14.00
2013,08,31,08,47,14.10
2013,08,31,08,48,14.10
2013,08,31,08,49,14.10
2013,08,31,08,50,14.20
2013,08,31,08,51,14.20
2013,08,31,08,52,14.30
2013,08,31,08,53,14.30
2013,08,31,08,54,14.30
2013,08,31,08,55,14.30
2013,08,31,08,56,14.40
2013,08,31,08,57,14.40
2013,08,31,08,58,14.40
2013,08,31,08,59,14.50
2013,08,31,09,00,14.50
2013,08,31,09,01,14.50
2013,08,31,09,02,14.50
2013,08,31,09,03,14.50
2013,08,31,09,04,14.50
2013,08,31,09,05,14.50
2013,08,31,09,06,14.40
2013,08,31,09,07,14.40
2013,08,31,09,08,14.40
2013,08,31,09,09,14.50
2013,08,31,09,10,14.50
2013,08,31,09,11,14.50
2013,08,31,09,12,14.60
2013,08,31,09,13,14.60
2013,08,31,09,14,14.60
2013,08,31,09,15,14.60
2013,08,31,09,16,14.70
2013,08,31,09,17,14.70
2013,08,31,09,18,14.80
2013,08,31,09,19,14.80
2013,08,31,09,20,14.80
2013,08,31,09,21,14.90
2013,08,31,09,22,14.90
2013,08,31,09,23,14.90
2013,08,31,09,24,14.90
2013,08,31,09,25,15.00
2013,08,31,09,26,15.00
2013,08,31,09,27,15.10
2013,08,31,09,28,15.10
2013,08,31,09,29,15.20
2013,08,31,09,30,15.30
2013,08,31,09,31,15.30
2013,08,31,09,32,15.40
2013,08,31,09,33,15.50
2013,08,31,09,34,15.50
2013,08,31,09,35,15.60
2013,08,31,09,36,15.60
2013,08,31,09,37,15.50
2013,08,31,09,38,15.50
2013,08,31,09,39,15.50
2013,08,31,09,40,15.60
2013,08,31,09,41,15.60
2013,08,31,09,42,15.60
2013,08,31,09,43,15.60
2013,08,31,09,44,15.60
2013,08,31,09,45,15.60
2013,08,31,09,46,15.60
2013,08,31,09,47,15.70
2013,08,31,09,48,15.70
2013,08,31,09,49,15.70
2013,08,31,09,50,15.80
2013,08,31,09,51,15.80
2013,08,31,09,52,15.90
2013,08,31,09,53,16.00
2013,08,31,09,54,16.10
2013,08,31,09,55,16.20
2013,08,31,09,56,16.20
2013,08,31,09,57,16.30
2013,08,31,09,58,16.30
2013,08,31,09,59,16.30
2013,08,31,10,00,16.30
2013,08,31,10,01,16.30
2013,08,31,10,02,16.40
2013,08,31,10,03,16.40
2013,08,31,10,04,16.40
2013,08,31,10,05,16.40
2013,08,31,10,06,16.50
2013,08,31,10,07,16.60
2013,08,31,10,08,16.60
2013,08,31,10,09,16.60
2013,08,31,10,10,16.60
2013,08,31,10,11,16.60
2013,08,31,10,12,16.70
2013,08,31,10,13,16.70
2013,08,31,10,14,16.80
2013,08,31,10,15,16.80
2013,08,31,10,16,16.80
2013,08,31,10,17,16.80
2013,08,31,10,18,16.80
2013,08,31,10,19,16.90
2013,08,31,10,20,16.90
2013,08,31,10,21,17.00
2013,08,31,10,22,17.10
2013,08,31,10,23,17.10
2013,08,31,10,24,17.10
2013,08,31,10,25,17.20
2013,08,31,10,26,17.30
2013,08,31,10,27,17.40
2013,08,31,10,28,17.40
2013,08,31,10,29,17.50
2013,08,31,10,30,17.60
2013,08,31,10,31,17.60
2013,08,31,10,32,17.60
2013,08,31,10,33,17.70
2013,08,31,10,34,17.80
2013,08,31,10,35,17.90
2013,08,31,10,36,18.00
2013,08,31,10,37,18.00
2013,08,31,10,38,18.10
2013,08,31,10,39,18.20
2013,08,31,10,40,18.20
2013,08,31,10,41,18.30
2013,08,31,10,42,18.30
2013,08,31,10,43,18.40
2013,08,31,10,44,18.40
2013,08,31,10,45,18.40
2013,08,31,10,46,18.50
2013,08,31,10,47,18.50
2013,08,31,10,48,18.60
2013,08,31,10,49,18.70
2013,08,31,10,50,18.70
2013,08,31,10,51,18.70
2013,08,31,10,52,18.80
2013,08,31,10,53,18.80
2013,08,31,10,54,18.90
2013,08,31,10,55,18.90
2013,08,31,10,56,19.00
2013,08,31,10,57,19.00
2013,08,31,10,58,19.10
2013,08,31,10,59,19.20
2013,08,31,11,00,19.20
2013,08,31,11,01,19.20
2013,08,31,11,02,19.20
2013,08,31,11,03,19.20
2013,08,31,11,04,19.20
2013,08,31,11,05,19.20
2013,08,31,11,06,19.20
2013,08,31,11,07,19.20
2013,08,31,11,08,19.20
2013,08,31,11,09,19.20
2013,08,31,11,10,19.20
2013,08,31,11,11,19.20
2013,08,31,11,12,19.20
2013,08,31,11,13,19.30
2013,08,31,11,14,19.20
2013,08,31,11,15,19.20
2013,08,31,11,16,19.10
2013,08,31,11,17,19.00
2013,08,31,11,18,18.90
2013,08,31,11,19,18.90
2013,08,31,11,20,18.90
2013,08,31,11,21,18.90
2013,08,31,11,22,18.90
2013,08,31,11,23,18.90
2013,08,31,11,24,18.90
2013,08,31,11,25,19.00
2013,08,31,11,26,19.00
2013,08,31,11,27,19.10
2013,08,31,11,28,19.10
2013,08,31,11,29,19.20
2013,08,31,11,30,19.30
2013,08,31,11,31,19.30
2013,08,31,11,32,19.40
2013,08,31,11,33,19.50
2013,08,31,11,34,19.60
2013,08,31,11,35,19.60
2013,08,31,11,36,19.70
2013,08,31,11,37,19.70
2013,08,31,11,38,19.70
2013,08,31,11,39,19.70
2013,08,31,11,40,19.70
2013,08,31,11,41,19.70
2013,08,31,11,42,19.70
2013,08,31,11,43,19.70
2013,08,31,11,44,19.70
2013,08,31,11,45,19.70
2013,08,31,11,46,19.60
2013,08,31,11,47,19.50
2013,08,31,11,48,19.50
2013,08,31,11,49,19.40
2013,08,31,11,50,19.40
2013,08,31,11,51,19.40
2013,08,31,11,52,19.40
2013,08,31,11,53,19.40
2013,08,31,11,54,19.40
2013,08,31,11,55,19.40
2013,08,31,11,56,19.30
2013,08,31,11,57,19.20
2013,08,31,11,58,19.20
2013,08,31,11,59,19.10
2013,08,31,12,00,19.10
2013,08,31,12,01,19.10
2013,08,31,12,02,19.10
2013,08,31,12,03,19.10
2013,08,31,12,04,19.10
2013,08,31,12,05,19.10
2013,08,31,12,06,19.10
2013,08,31,12,07,19.10
2013,08,31,12,08,19.10
2013,08,31,12,09,19.10
2013,08,31,12,10,19.10
2013,08,31,12,11,19.10
2013,08,31,12,12,19.10
2013,08,31,12,13,19.10
2013,08,31,12,14,19.00
2013,08,31,12,15,19.00
2013,08,31,12,16,19.10
2013,08,31,12,17,19.10
2013,08,31,12,18,19.10
2013,08,31,12,19,19.20
2013,08,31,12,20,19.20
2013,08,31,12,21,19.20
2013,08,31,12,22,19.20
2013,08,31,12,23,19.20
2013,08,31,12,24,19.20
2013,08,31,12,25,19.10
2013,08,31,12,26,19.10
2013,08,31,12,27,19.10
2013,08,31,12,28,19.10
2013,08,31,12,29,19.10
2013,08,31,12,30,19.10
2013,08,31,12,31,19.10
2013,08,31,12,32,19.10
2013,08,31,12,33,19.20
2013,08,31,12,34,19.30
2013,08,31,12,35,19.40
2013,08,31,12,36,19.60
2013,08,31,12,37,19.60
2013,08,31,12,38,19.70
2013,08,31,12,39,19.70
2013,08,31,12,40,19.60
2013,08,31,12,41,19.60
2013,08,31,12,42,19.50
2013,08,31,12,43,19.50
2013,08,31,12,44,19.40
2013,08,31,12,45,19.40
2013,08,31,12,46,19.50
2013,08,31,12,47,19.50
2013,08,31,12,48,19.60
2013,08,31,12,49,19.60
2013,08,31,12,50,19.70
2013,08,31,12,51,19.70
2013,08,31,12,52,19.70
2013,08,31,12,53,19.70
2013,08,31,12,54,19.70
2013,08,31,12,55,19.70
2013,08,31,12,56,19.60
2013,08,31,12,57,19.60
2013,08,31,12,58,19.60
2013,08,31,12,59,19.70
2013,08,31,13,00,19.60
2013,08,31,13,01,19.60
2013,08,31,13,02,19.60
2013,08,31,13,03,19.60
2013,08,31,13,04,19.60
2013,08,31,13,05,19.60
2013,08,31,13,06,19.50
2013,08,31,13,07,19.50
2013,08,31,13,08,19.50
2013,08,31,13,09,19.40
2013,08,31,13,10,19.40
2013,08,31,13,11,19.40
2013,08,31,13,12,19.50
2013,08,31,13,13,19.60
2013,08,31,13,14,19.70
2013,08,31,13,15,19.70
2013,08,31,13,16,19.80
2013,08,31,13,17,19.80
2013,08,31,13,18,19.90
2013,08,31,13,19,19.90
2013,08,31,13,20,20.00
2013,08,31,13,21,20.00
2013,08,31,13,22,20.10
2013,08,31,13,23,20.10
2013,08,31,13,24,20.00
2013,08,31,13,25,20.00
2013,08,31,13,26,19.90
2013,08,31,13,27,19.90
2013,08,31,13,28,19.90
2013,08,31,13,29,19.90
2013,08,31,13,30,19.90
2013,08,31,13,31,20.00
2013,08,31,13,32,20.00
2013,08,31,13,33,20.10
2013,08,31,13,34,20.20
2013,08,31,13,35,20.30
2013,08,31,13,36,20.30
2013,08,31,13,37,20.30
2013,08,31,13,38,20.40
2013,08,31,13,39,20.60
2013,08,31,13,40,20.80
2013,08,31,13,41,20.90
2013,08,31,13,42,21.10
2013,08,31,13,43,21.20
2013,08,31,13,44,21.20
2013,08,31,13,45,21.20
2013,08,31,13,46,21.20
2013,08,31,13,47,21.20
2013,08,31,13,48,21.30
2013,08,31,13,49,21.40
2013,08,31,13,50,21.40
2013,08,31,13,51,21.30
2013,08,31,13,52,21.20
2013,08,31,13,53,21.10
2013,08,31,13,54,21.00
2013,08,31,13,55,21.00
2013,08,31,13,56,20.90
2013,08,31,13,57,20.80
2013,08,31,13,58,20.70
2013,08,31,13,59,20.70
2013,08,31,14,00,20.70
2013,08,31,14,01,20.60
2013,08,31,14,02,20.60
2013,08,31,14,03,20.60
2013,08,31,14,04,20.70
2013,08,31,14,05,20.80
2013,08,31,14,06,20.90
2013,08,31,14,07,21.00
2013,08,31,14,08,21.10
2013,08,31,14,09,21.20
2013,08,31,14,10,21.20
2013,08,31,14,11,21.30
2013,08,31,14,12,21.40
2013,08,31,14,13,21.40
2013,08,31,14,14,21.40
2013,08,31,14,15,21.30
2013,08,31,14,16,21.20
2013,08,31,14,17,21.20
2013,08,31,14,18,21.10
2013,08,31,14,19,21.00
2013,08,31,14,20,21.00
2013,08,31,14,21,20.90
2013,08,31,14,22,20.80
2013,08,31,14,23,20.80
2013,08,31,14,24,20.80
2013,08,31,14,25,20.80
2013,08,31,14,26,20.70
2013,08,31,14,27,20.60
2013,08,31,14,28,20.40
2013,08,31,14,29,20.20
2013,08,31,14,30,20.00
2013,08,31,14,31,19.90
2013,08,31,14,32,19.80
2013,08,31,14,33,19.70
2013,08,31,14,34,19.70
2013,08,31,14,35,19.70
2013,08,31,14,36,19.70
2013,08,31,14,37,19.70
2013,08,31,14,38,19.70
2013,08,31,14,39,19.70
2013,08,31,14,40,19.70
2013,08,31,14,41,19.70
2013,08,31,14,42,19.80
2013,08,31,14,43,19.90
2013,08,31,14,44,19.90
2013,08,31,14,45,20.00
2013,08,31,14,46,20.10
2013,08,31,14,47,20.20
2013,08,31,14,48,20.30
2013,08,31,14,49,20.40
2013,08,31,14,50,20.50
2013,08,31,14,51,20.60
2013,08,31,14,52,20.70
2013,08,31,14,53,20.80
2013,08,31,14,54,20.80
2013,08,31,14,55,20.90
2013,08,31,14,56,21.00
2013,08,31,14,57,21.10
2013,08,31,14,58,21.10
2013,08,31,14,59,21.20
2013,08,31,15,00,21.20
2013,08,31,15,01,21.20
2013,08,31,15,02,21.20
2013,08,31,15,03,21.20
2013,08,31,15,04,21.30
2013,08,31,15,05,21.30
2013,08,31,15,06,21.30
2013,08,31,15,07,21.30
2013,08,31,15,08,21.40
2013,08,31,15,09,21.40
2013,08,31,15,10,21.40
2013,08,31,15,11,21.40
2013,08,31,15,12,21.40
2013,08,31,15,13,21.30
2013,08,31,15,14,21.20
2013,08,31,15,15,21.20
2013,08,31,15,16,21.20
2013,08,31,15,17,21.30
2013,08,31,15,18,21.30
2013,08,31,15,19,21.30
2013,08,31,15,20,21.40
2013,08,31,15,21,21.40
2013,08,31,15,22,21.40
2013,08,31,15,23,21.50
2013,08,31,15,24,21.50
2013,08,31,15,25,21.50
2013,08,31,15,26,21.60
2013,08,31,15,27,21.60
2013,08,31,15,28,21.60
2013,08,31,15,29,21.50
2013,08,31,15,30,21.50
2013,08,31,15,31,21.40
2013,08,31,15,32,21.40
2013,08,31,15,33,21.40
2013,08,31,15,34,21.30
2013,08,31,15,35,21.30
2013,08,31,15,36,21.30
2013,08,31,15,37,21.30
2013,08,31,15,38,21.30
2013,08,31,15,39,21.30
2013,08,31,15,40,21.30
2013,08,31,15,41,21.40
2013,08,31,15,42,21.40
2013,08,31,15,43,21.50
2013,08,31,15,44,21.60
2013,08,31,15,45,21.60
2013,08,31,15,46,21.70
2013,08,31,15,47,21.70
2013,08,31,15,48,21.70
2013,08,31,15,49,21.80
2013,08,31,15,50,21.80
2013,08,31,15,51,21.70
2013,08,31,15,52,21.80
2013,08,31,15,53,21.80
2013,08,31,15,54,21.80
2013,08,31,15,55,21.80
2013,08,31,15,56,21.90
2013,08,31,15,57,22.00
2013,08,31,15,58,22.00
2013,08,31,15,59,22.10
2013,08,31,16,00,22.20
2013,08,31,16,01,22.30
2013,08,31,16,02,22.40
2013,08,31,16,03,22.50
2013,08,31,16,04,22.60
2013,08,31,16,05,22.70
2013,08,31,16,06,22.80
2013,08,31,16,07,22.90
2013,08,31,16,08,22.90
2013,08,31,16,09,22.90
2013,08,31,16,10,22.90
2013,08,31,16,11,22.90
2013,08,31,16,12,22.90
2013,08,31,16,13,22.80
2013,08,31,16,14,22.80
2013,08,31,16,15,22.80
2013,08,31,16,16,22.80
2013,08,31,16,17,22.70
2013,08,31,16,18,22.60
2013,08,31,16,19,22.60
2013,08,31,16,20,22.60
2013,08,31,16,21,22.70
2013,08,31,16,22,22.80
2013,08,31,16,23,22.80
2013,08,31,16,24,22.80
2013,08,31,16,25,22.80
2013,08,31,16,26,22.80
2013,08,31,16,27,22.80
2013,08,31,16,28,22.90
2013,08,31,16,29,23.00
2013,08,31,16,30,23.00
2013,08,31,16,31,23.10
2013,08,31,16,32,23.20
2013,08,31,16,33,23.20
2013,08,31,16,34,23.20
2013,08,31,16,35,23.20
2013,08,31,16,36,23.10
2013,08,31,16,37,23.10
2013,08,31,16,38,23.00
2013,08,31,16,39,23.00
2013,08,31,16,40,23.00
2013,08,31,16,41,23.00
2013,08,31,16,42,23.10
2013,08,31,16,43,23.20
2013,08,31,16,44,23.20
2013,08,31,16,45,23.30
2013,08,31,16,46,23.30
2013,08,31,16,47,23.30
2013,08,31,16,48,23.40
2013,08,31,16,49,23.40
2013,08,31,16,50,23.40
2013,08,31,16,51,23.40
2013,08,31,16,52,23.40
2013,08,31,16,53,23.30
2013,08,31,16,54,23.10
2013,08,31,16,55,23.00
2013,08,31,16,56,22.90
2013,08,31,16,57,22.80
2013,08,31,16,58,22.70
2013,08,31,16,59,22.70
2013,08,31,17,00,22.60
2013,08,31,17,01,22.60
2013,08,31,17,02,22.60
2013,08,31,17,03,22.60
2013,08,31,17,04,22.50
2013,08,31,17,05,22.40
2013,08,31,17,06,22.30
2013,08,31,17,07,22.10
2013,08,31,17,08,22.00
2013,08,31,17,09,22.00
2013,08,31,17,10,21.90
2013,08,31,17,11,21.80
2013,08,31,17,12,21.60
2013,08,31,17,13,21.40
2013,08,31,17,14,21.30
2013,08,31,17,15,21.20
2013,08,31,17,16,21.20
2013,08,31,17,17,21.20
2013,08,31,17,18,21.20
2013,08,31,17,19,21.20